Cloud_Cover
0 0 0 0 0 3 56 34 14 13 23 4 0 0 3 4 51 99 100 100 92 100 44 26 0 0 1 5 5 20 20 5 5 97 100 100 100 100 100 100 100 100 100
0 0 0 0 0 9 21 79 100 47 5 0 29 99 58 1 87 100 62 42 91 39 3 0 0 0 5 70 32 67 5 5 66 100 100 100 100 100 100 100 100 100 100
0 0 6 20 10 21 37 47 24 20 14 98 100 83 6 67 2 4 36 100 57 6 0 0 0 2 5 28 74 32 5 46 92 100 100 100 100 100 100 100 100 100 99
0 0 2 20 8 26 50 38 19 62 87 30 0 1 30 23 37 100 96 9 0 0 0 0 0 4 45 87 32 5 18 68 100 100 100 100 100 100 100 100 100 100 100
9 20 50 51 30 52 41 22 20 0 15 0 47 76 93 98 100 80 2 0 0 0 0 5 44 18 6 100 58 6 46 78 100 100 100 100 100 100 100 100 100 100 100
100 100 98 77 60 70 65 66 6 5 75 84 100 100 100 91 100 46 9 0 0 0 4 6 16 24 100 76 45 8 33 100 100 100 100 100 100 100 100 100 100 100 100
100 100 94 56 80 99 100 25 20 93 2 90 34 12 4 94 100 100 97 0 0 5 32 39 53 6 46 88 100 63 99 99 100 100 100 100 100 100 100 100 100 95 100
100 100 77 91 81 83 100 100 100 100 71 0 2 0 56 100 100 100 95 3 42 80 25 5 10 59 62 99 100 82 100 100 100 100 100 100 100 98 56 92 31 89 100
100 100 22 78 100 100 100 100 100 15 5 2 4 96 100 100 100 100 44 9 31 88 6 5 67 100 100 100 49 100 83 100 100 100 100 100 100 99 95 65 50 95 100
100 100 100 100 100 100 100 99 13 1 12 100 92 100 100 100 100 100 36 27 100 100 98 74 92 100 100 100 100 100 100 100 100 98 100 100 100 100 100 14 3 80 38
100 100 100 100 100 45 12 0 16 84 61 80 100 100 94 100 100 100 89 49 100 98 84 75 96 100 100 100 100 41 77 87 96 96 100 100 100 100 100 100 100 100 95
100 100 89 48 1 0 28 92 100 43 97 100 100 100 100 100 100 100 100 100 83 100 70 95 93 100 100 100 100 100 100 83 98 100 100 100 100 100 100 100 100 100 100
100 23 27 17 5 64 100 100 81 91 100 100 100 100 100 100 100 100 100 100 100 100 91 95 100 100 100 100 100 100 100 100 100 100 100 100 100 100 100 100 100 100 100
15 96 100 99 93 100 100 11 49 97 100 100 100 100 100 100 100 66 92 100 100 100 100 100 100 100 100 100 100 100 100 100 100 100 100 100 100 100 100 100 100 100 100
5 5 26 96 100 100 100 100 42 60 81 100 100 100 100 100 92 100 100 100 100 100 100 100 100 100 100 100 100 100 100 100 100 100 100 100 100 100 100 100 100 100 100
29 6 30 34 100 100 100 100 100 100 100 100 100 99 95 96 100 100 100 100 100 100 100 100 100 100 100 100 100 100 100 100 100 100 100 100 100 100 100 100 100 85 96
4 0 40 25 79 100 100 98 100 100 100 100 100 100 90 100 100 100 100 100 100 100 100 100 100 100 99 100 100 100 100 100 100 100 100 100 100 100 100 100 61 100 100
4 44 7 29 24 34 28 72 100 100 100 100 100 100 100 100 100 100 100 99 100 100 100 100 100 98 100 100 100 88 100 100 100 100 100 100 97 100 100 100 99 66 96
0 4 44 32 32 65 61 100 100 100 100 100 100 100 100 100 100 100 100 100 100 100 100 100 78 74 92 100 100 100 100 93 98 100 100 100 100 100 99 98 90 83 66
8 81 46 18 39 64 96 100 100 100 100 100 100 100 100 100 100 100 100 100 100 100 100 99 91 84 63 100 100 100 100 100 100 100 100 100 100 100 76 6 7 63 95
30 57 78 20 36 64 100 100 100 100 100 100 100 100 100 57 100 100 100 100 100 100 100 100 96 100 100 100 100 100 100 100 100 100 100 100 49 79 60 95 100 100 93
5 19 5 13 22 54 100 100 100 100 100 100 100 100 100 100 100 100 100 100 100 100 100 100 93 94 100 100 100 100 97 99 87 84 31 55 72 100 100 89 100 100 100
20 5 12 27 33 72 100 100 100 100 100 100 98 95 100 100 100 100 100 100 100 96 78 78 98 98 98 34 41 77 67 78 68 82 94 100 100 100 98 89 85 90 100
5 5 22 42 44 61 100 100 100 100 100 100 100 100 100 100 100 100 100 82 61 38 89 99 99 100 100 100 100 100 82 100 99 99 100 100 100 100 100 99 99 100 99
11 19 55 60 72 99 100 100 94 99 100 100 100 100 100 100 100 100 100 58 83 100 85 75 96 57 67 32 47 37 51 59 24 31 44 50 94 95 86 94 92 69 55
88 67 79 89 95 100 100 100 100 100 100 100 100 100 100 100 100 100 100 100 96 62 71 100 100 100 100 100 100 100 100 100 100 100 100 100 100 100 100 96 92 100 81